Location: Dompnac
(44.5644°N, 4.1026°E)
Time: 01:38:25
(UTC+00:00)

USA 234 - Pass Details

Date: 21 January 2021
Orbit: 1100 x 1107 km, 123.0° (Epoch: 01 March)

Event Time Altitude Azimuth Distance (km) Brightness Sun altitude
Exits shadow 17:55:45 17° 59° (ENE) 2,486 4.5 -13.8°
Maximum altitude 17:59:47 31° 9° (N) 1,819 4.2 -14.5°
Drops below altitude 10° 18:05:23 10° 310° (NW) 2,968 6.0 -15.5°
Sets 18:08:08 0° 301° (WNW) 3,927 6.9 -16.0°
